Year,Month,Day,Hour,Minute,Value (Times are PST for temperature in C)
2007,12,05,00,00,9.40
2007,12,05,00,01,9.40
2007,12,05,00,02,9.40
2007,12,05,00,03,9.30
2007,12,05,00,04,9.30
2007,12,05,00,05,9.30
2007,12,05,00,06,9.20
2007,12,05,00,07,9.20
2007,12,05,00,08,9.20
2007,12,05,00,09,9.20
2007,12,05,00,10,9.30
2007,12,05,00,11,9.30
2007,12,05,00,12,9.30
2007,12,05,00,13,9.30
2007,12,05,00,14,9.30
2007,12,05,00,15,9.30
2007,12,05,00,16,9.30
2007,12,05,00,17,9.30
2007,12,05,00,18,9.30
2007,12,05,00,19,9.20
2007,12,05,00,20,9.20
2007,12,05,00,21,9.30
2007,12,05,00,22,9.30
2007,12,05,00,23,9.30
2007,12,05,00,24,9.30
2007,12,05,00,25,9.30
2007,12,05,00,26,9.30
2007,12,05,00,27,9.30
2007,12,05,00,28,9.30
2007,12,05,00,29,9.30
2007,12,05,00,30,9.30
2007,12,05,00,31,9.30
2007,12,05,00,32,9.30
2007,12,05,00,33,9.30
2007,12,05,00,34,9.30
2007,12,05,00,35,9.30
2007,12,05,00,36,9.30
2007,12,05,00,37,9.30
2007,12,05,00,38,9.30
2007,12,05,00,39,9.30
2007,12,05,00,40,9.40
2007,12,05,00,41,9.40
2007,12,05,00,42,9.40
2007,12,05,00,43,9.40
2007,12,05,00,44,9.40
2007,12,05,00,45,9.40
2007,12,05,00,46,9.40
2007,12,05,00,47,9.50
2007,12,05,00,48,9.50
2007,12,05,00,49,9.50
2007,12,05,00,50,9.50
2007,12,05,00,51,9.60
2007,12,05,00,52,9.60
2007,12,05,00,53,9.60
2007,12,05,00,54,9.60
2007,12,05,00,55,9.60
2007,12,05,00,56,9.60
2007,12,05,00,57,9.60
2007,12,05,00,58,9.60
2007,12,05,00,59,9.60
2007,12,05,01,00,9.60
2007,12,05,01,01,9.60
2007,12,05,01,02,9.50
2007,12,05,01,03,9.50
2007,12,05,01,04,9.40
2007,12,05,01,05,9.40
2007,12,05,01,06,9.40
2007,12,05,01,07,9.40
2007,12,05,01,08,9.40
2007,12,05,01,09,9.40
2007,12,05,01,10,9.40
2007,12,05,01,11,9.50
2007,12,05,01,12,9.50
2007,12,05,01,13,9.50
2007,12,05,01,14,9.50
2007,12,05,01,15,9.50
2007,12,05,01,16,9.50
2007,12,05,01,17,9.50
2007,12,05,01,18,9.50
2007,12,05,01,19,9.50
2007,12,05,01,20,9.40
2007,12,05,01,21,9.40
2007,12,05,01,22,9.40
2007,12,05,01,23,9.40
2007,12,05,01,24,9.40
2007,12,05,01,25,9.40
2007,12,05,01,26,9.40
2007,12,05,01,27,9.40
2007,12,05,01,28,9.40
2007,12,05,01,29,9.40
2007,12,05,01,30,9.40
2007,12,05,01,31,9.30
2007,12,05,01,32,9.30
2007,12,05,01,33,9.30
2007,12,05,01,34,9.30
2007,12,05,01,35,9.30
2007,12,05,01,36,9.30
2007,12,05,01,37,9.30
2007,12,05,01,38,9.30
2007,12,05,01,39,9.30
2007,12,05,01,40,9.30
2007,12,05,01,41,9.30
2007,12,05,01,42,9.20
2007,12,05,01,43,9.20
2007,12,05,01,44,9.20
2007,12,05,01,45,9.20
2007,12,05,01,46,9.20
2007,12,05,01,47,9.20
2007,12,05,01,48,9.10
2007,12,05,01,49,9.10
2007,12,05,01,50,9.10
2007,12,05,01,51,9.10
2007,12,05,01,52,9.10
2007,12,05,01,53,9.10
2007,12,05,01,54,9.20
2007,12,05,01,55,9.20
2007,12,05,01,56,9.20
2007,12,05,01,57,9.20
2007,12,05,01,58,9.20
2007,12,05,01,59,9.30
2007,12,05,02,00,9.20
2007,12,05,02,01,9.30
2007,12,05,02,02,9.30
2007,12,05,02,03,9.30
2007,12,05,02,04,9.30
2007,12,05,02,05,9.20
2007,12,05,02,06,9.20
2007,12,05,02,07,9.20
2007,12,05,02,08,9.20
2007,12,05,02,09,9.20
2007,12,05,02,10,9.20
2007,12,05,02,11,9.20
2007,12,05,02,12,9.10
2007,12,05,02,13,9.10
2007,12,05,02,14,9.10
2007,12,05,02,15,9.10
2007,12,05,02,16,9.20
2007,12,05,02,17,9.20
2007,12,05,02,18,9.20
2007,12,05,02,19,9.20
2007,12,05,02,20,9.20
2007,12,05,02,21,9.20
2007,12,05,02,22,9.20
2007,12,05,02,23,9.20
2007,12,05,02,24,9.20
2007,12,05,02,25,9.20
2007,12,05,02,26,9.20
2007,12,05,02,27,9.20
2007,12,05,02,28,9.20
2007,12,05,02,29,9.20
2007,12,05,02,30,9.20
2007,12,05,02,31,9.20
2007,12,05,02,32,9.30
2007,12,05,02,33,9.30
2007,12,05,02,34,9.30
2007,12,05,02,35,9.30
2007,12,05,02,36,9.30
2007,12,05,02,37,9.30
2007,12,05,02,38,9.20
2007,12,05,02,39,9.20
2007,12,05,02,40,9.20
2007,12,05,02,41,9.20
2007,12,05,02,42,9.20
2007,12,05,02,43,9.20
2007,12,05,02,44,9.30
2007,12,05,02,45,9.30
2007,12,05,02,46,9.30
2007,12,05,02,47,9.30
2007,12,05,02,48,9.30
2007,12,05,02,49,9.30
2007,12,05,02,50,9.30
2007,12,05,02,51,9.30
2007,12,05,02,52,9.30
2007,12,05,02,53,9.20
2007,12,05,02,54,9.20
2007,12,05,02,55,9.20
2007,12,05,02,56,9.20
2007,12,05,02,57,9.20
2007,12,05,02,58,9.20
2007,12,05,02,59,9.20
2007,12,05,03,00,9.20
2007,12,05,03,01,9.20
2007,12,05,03,02,9.20
2007,12,05,03,03,9.20
2007,12,05,03,04,9.20
2007,12,05,03,05,9.20
2007,12,05,03,06,9.20
2007,12,05,03,07,9.20
2007,12,05,03,08,9.20
2007,12,05,03,09,9.10
2007,12,05,03,10,9.10
2007,12,05,03,11,9.10
2007,12,05,03,12,9.10
2007,12,05,03,13,9.20
2007,12,05,03,14,9.20
2007,12,05,03,15,9.20
2007,12,05,03,16,9.20
2007,12,05,03,17,9.10
2007,12,05,03,18,9.10
2007,12,05,03,19,9.10
2007,12,05,03,20,9.10
2007,12,05,03,21,9.10
2007,12,05,03,22,9.00
2007,12,05,03,23,9.00
2007,12,05,03,24,9.00
2007,12,05,03,25,8.90
2007,12,05,03,26,8.90
2007,12,05,03,27,8.90
2007,12,05,03,28,8.90
2007,12,05,03,29,8.80
2007,12,05,03,30,8.80
2007,12,05,03,31,8.80
2007,12,05,03,32,8.80
2007,12,05,03,33,8.80
2007,12,05,03,34,8.80
2007,12,05,03,35,8.80
2007,12,05,03,36,8.80
2007,12,05,03,37,8.80
2007,12,05,03,38,8.80
2007,12,05,03,39,8.80
2007,12,05,03,40,8.80
2007,12,05,03,41,8.80
2007,12,05,03,42,8.80
2007,12,05,03,43,8.80
2007,12,05,03,44,8.80
2007,12,05,03,45,8.80
2007,12,05,03,46,8.80
2007,12,05,03,47,8.80
2007,12,05,03,48,8.80
2007,12,05,03,49,8.80
2007,12,05,03,50,8.80
2007,12,05,03,51,8.90
2007,12,05,03,52,8.90
2007,12,05,03,53,8.90
2007,12,05,03,54,8.90
2007,12,05,03,55,8.90
2007,12,05,03,56,8.90
2007,12,05,03,57,9.00
2007,12,05,03,58,9.00
2007,12,05,03,59,9.00
2007,12,05,04,00,9.00
2007,12,05,04,01,9.00
2007,12,05,04,02,9.00
2007,12,05,04,03,9.00
2007,12,05,04,04,9.00
2007,12,05,04,05,9.00
2007,12,05,04,06,9.00
2007,12,05,04,07,9.00
2007,12,05,04,08,9.00
2007,12,05,04,09,9.10
2007,12,05,04,10,9.10
2007,12,05,04,11,9.10
2007,12,05,04,12,9.10
2007,12,05,04,13,9.10
2007,12,05,04,14,9.00
2007,12,05,04,15,9.00
2007,12,05,04,16,8.90
2007,12,05,04,17,8.90
2007,12,05,04,18,8.90
2007,12,05,04,19,8.90
2007,12,05,04,20,8.90
2007,12,05,04,21,8.80
2007,12,05,04,22,8.80
2007,12,05,04,23,8.80
2007,12,05,04,24,8.80
2007,12,05,04,25,8.80
2007,12,05,04,26,8.80
2007,12,05,04,27,8.80
2007,12,05,04,28,8.80
2007,12,05,04,29,8.70
2007,12,05,04,30,8.70
2007,12,05,04,31,8.70
2007,12,05,04,32,8.70
2007,12,05,04,33,8.70
2007,12,05,04,34,8.70
2007,12,05,04,35,8.70
2007,12,05,04,36,8.70
2007,12,05,04,37,8.70
2007,12,05,04,38,8.70
2007,12,05,04,39,8.70
2007,12,05,04,40,8.70
2007,12,05,04,41,8.70
2007,12,05,04,42,8.70
2007,12,05,04,43,8.70
2007,12,05,04,44,8.60
2007,12,05,04,45,8.60
2007,12,05,04,46,8.60
2007,12,05,04,47,8.60
2007,12,05,04,48,8.60
2007,12,05,04,49,8.60
2007,12,05,04,50,8.60
2007,12,05,04,51,8.50
2007,12,05,04,52,8.50
2007,12,05,04,53,8.50
2007,12,05,04,54,8.50
2007,12,05,04,55,8.50
2007,12,05,04,56,8.50
2007,12,05,04,57,8.50
2007,12,05,04,58,8.50
2007,12,05,04,59,8.40
2007,12,05,05,00,8.40
2007,12,05,05,01,8.40
2007,12,05,05,02,8.40
2007,12,05,05,03,8.40
2007,12,05,05,04,8.40
2007,12,05,05,05,8.40
2007,12,05,05,06,8.30
2007,12,05,05,07,8.30
2007,12,05,05,08,8.30
2007,12,05,05,09,8.30
2007,12,05,05,10,8.30
2007,12,05,05,11,8.20
2007,12,05,05,12,8.20
2007,12,05,05,13,8.20
2007,12,05,05,14,8.10
2007,12,05,05,15,8.10
2007,12,05,05,16,8.20
2007,12,05,05,17,8.20
2007,12,05,05,18,8.20
2007,12,05,05,19,8.30
2007,12,05,05,20,8.30
2007,12,05,05,21,8.40
2007,12,05,05,22,8.40
2007,12,05,05,23,8.40
2007,12,05,05,24,8.40
2007,12,05,05,25,8.40
2007,12,05,05,26,8.40
2007,12,05,05,27,8.40
2007,12,05,05,28,8.40
2007,12,05,05,29,8.40
2007,12,05,05,30,8.40
2007,12,05,05,31,8.40
2007,12,05,05,32,8.40
2007,12,05,05,33,8.30
2007,12,05,05,34,8.30
2007,12,05,05,35,8.30
2007,12,05,05,36,8.30
2007,12,05,05,37,8.30
2007,12,05,05,38,8.20
2007,12,05,05,39,8.10
2007,12,05,05,40,8.10
2007,12,05,05,41,8.00
2007,12,05,05,42,8.00
2007,12,05,05,43,8.00
2007,12,05,05,44,7.90
2007,12,05,05,45,8.00
2007,12,05,05,46,8.00
2007,12,05,05,47,8.10
2007,12,05,05,48,8.20
2007,12,05,05,49,8.20
2007,12,05,05,50,8.20
2007,12,05,05,51,8.20
2007,12,05,05,52,8.20
2007,12,05,05,53,8.20
2007,12,05,05,54,8.20
2007,12,05,05,55,8.20
2007,12,05,05,56,8.20
2007,12,05,05,57,8.20
2007,12,05,05,58,8.20
2007,12,05,05,59,8.20
2007,12,05,06,00,8.20
2007,12,05,06,01,8.10
2007,12,05,06,02,8.10
2007,12,05,06,03,8.10
2007,12,05,06,04,8.10
2007,12,05,06,05,8.00
2007,12,05,06,06,7.90
2007,12,05,06,07,7.90
2007,12,05,06,08,7.90
2007,12,05,06,09,7.90
2007,12,05,06,10,7.90
2007,12,05,06,11,7.90
2007,12,05,06,12,7.80
2007,12,05,06,13,7.70
2007,12,05,06,14,7.60
2007,12,05,06,15,7.50
2007,12,05,06,16,7.50
2007,12,05,06,17,7.40
2007,12,05,06,18,7.30
2007,12,05,06,19,7.30
2007,12,05,06,20,7.20
2007,12,05,06,21,7.20
2007,12,05,06,22,7.10
2007,12,05,06,23,7.10
2007,12,05,06,24,7.00
2007,12,05,06,25,6.90
2007,12,05,06,26,6.90
2007,12,05,06,27,6.90
2007,12,05,06,28,6.90
2007,12,05,06,29,7.10
2007,12,05,06,30,7.20
2007,12,05,06,31,7.20
2007,12,05,06,32,7.40
2007,12,05,06,33,7.40
2007,12,05,06,34,7.50
2007,12,05,06,35,7.40
2007,12,05,06,36,7.40
2007,12,05,06,37,7.40
2007,12,05,06,38,7.40
2007,12,05,06,39,7.30
2007,12,05,06,40,7.30
2007,12,05,06,41,7.20
2007,12,05,06,42,7.20
2007,12,05,06,43,7.20
2007,12,05,06,44,7.20
2007,12,05,06,45,7.20
2007,12,05,06,46,7.20
2007,12,05,06,47,7.20
2007,12,05,06,48,7.20
2007,12,05,06,49,7.30
2007,12,05,06,50,7.40
2007,12,05,06,51,7.50
2007,12,05,06,52,7.50
2007,12,05,06,53,7.40
2007,12,05,06,54,7.40
2007,12,05,06,55,7.50
2007,12,05,06,56,7.50
2007,12,05,06,57,7.60
2007,12,05,06,58,7.60
2007,12,05,06,59,7.60
2007,12,05,07,00,7.60
2007,12,05,07,01,7.60
2007,12,05,07,02,7.60
2007,12,05,07,03,7.60
2007,12,05,07,04,7.70
2007,12,05,07,05,7.70
2007,12,05,07,06,7.60
2007,12,05,07,07,7.60
2007,12,05,07,08,7.60
2007,12,05,07,09,7.60
2007,12,05,07,10,7.60
2007,12,05,07,11,7.60
2007,12,05,07,12,7.60
2007,12,05,07,13,7.60
2007,12,05,07,14,7.70
2007,12,05,07,15,7.70
2007,12,05,07,16,7.70
2007,12,05,07,17,7.70
2007,12,05,07,18,7.70
2007,12,05,07,19,7.70
2007,12,05,07,20,7.70
2007,12,05,07,21,7.70
2007,12,05,07,22,7.60
2007,12,05,07,23,7.60
2007,12,05,07,24,7.60
2007,12,05,07,25,7.50
2007,12,05,07,26,7.50
2007,12,05,07,27,7.50
2007,12,05,07,28,7.50
2007,12,05,07,29,7.50
2007,12,05,07,30,7.40
2007,12,05,07,31,7.40
2007,12,05,07,32,7.40
2007,12,05,07,33,7.50
2007,12,05,07,34,7.50
2007,12,05,07,35,7.40
2007,12,05,07,36,7.40
2007,12,05,07,37,7.40
2007,12,05,07,38,7.40
2007,12,05,07,39,7.40
2007,12,05,07,40,7.40
2007,12,05,07,41,7.40
2007,12,05,07,42,7.40
2007,12,05,07,43,7.40
2007,12,05,07,44,7.40
2007,12,05,07,45,7.40
2007,12,05,07,46,7.40
2007,12,05,07,47,7.40
2007,12,05,07,48,7.40
2007,12,05,07,49,7.40
2007,12,05,07,50,7.40
2007,12,05,07,51,7.40
2007,12,05,07,52,7.50
2007,12,05,07,53,7.70
2007,12,05,07,54,7.70
2007,12,05,07,55,7.70
2007,12,05,07,56,7.70
2007,12,05,07,57,7.70
2007,12,05,07,58,7.70
2007,12,05,07,59,7.70
2007,12,05,08,00,7.80
2007,12,05,08,01,7.80
2007,12,05,08,02,7.80
2007,12,05,08,03,7.80
2007,12,05,08,04,7.80
2007,12,05,08,05,7.90
2007,12,05,08,06,7.90
2007,12,05,08,07,7.90
2007,12,05,08,08,7.90
2007,12,05,08,09,7.90
2007,12,05,08,10,7.90
2007,12,05,08,11,7.80
2007,12,05,08,12,7.80
2007,12,05,08,13,7.80
2007,12,05,08,14,7.80
2007,12,05,08,15,7.70
2007,12,05,08,16,7.70
2007,12,05,08,17,7.70
2007,12,05,08,18,7.70
2007,12,05,08,19,7.70
2007,12,05,08,20,7.60
2007,12,05,08,21,7.60
2007,12,05,08,22,7.60
2007,12,05,08,23,7.60
2007,12,05,08,24,7.60
2007,12,05,08,25,7.60
2007,12,05,08,26,7.60
2007,12,05,08,27,7.60
2007,12,05,08,28,7.60
2007,12,05,08,29,7.70
2007,12,05,08,30,7.70
2007,12,05,08,31,7.60
2007,12,05,08,32,7.60
2007,12,05,08,33,7.60
2007,12,05,08,34,7.60
2007,12,05,08,35,7.60
2007,12,05,08,36,7.70
2007,12,05,08,37,7.70
2007,12,05,08,38,7.70
2007,12,05,08,39,7.70
2007,12,05,08,40,7.70
2007,12,05,08,41,7.70
2007,12,05,08,42,7.60
2007,12,05,08,43,7.60
2007,12,05,08,44,7.50
2007,12,05,08,45,7.50
2007,12,05,08,46,7.40
2007,12,05,08,47,7.40
2007,12,05,08,48,7.40
2007,12,05,08,49,7.30
2007,12,05,08,50,7.30
2007,12,05,08,51,7.30
2007,12,05,08,52,7.40
2007,12,05,08,53,7.40
2007,12,05,08,54,7.50
2007,12,05,08,55,7.50
2007,12,05,08,56,7.60
2007,12,05,08,57,7.60
2007,12,05,08,58,7.60
2007,12,05,08,59,7.70
2007,12,05,09,00,7.70
2007,12,05,09,01,7.70
2007,12,05,09,02,7.60
2007,12,05,09,03,7.60
2007,12,05,09,04,7.60
2007,12,05,09,05,7.60
2007,12,05,09,06,7.60
2007,12,05,09,07,7.60
2007,12,05,09,08,7.60
2007,12,05,09,09,7.60
2007,12,05,09,10,7.60
2007,12,05,09,11,7.70
2007,12,05,09,12,7.70
2007,12,05,09,13,7.70
2007,12,05,09,14,7.70
2007,12,05,09,15,7.70
2007,12,05,09,16,7.70
2007,12,05,09,17,7.70
2007,12,05,09,18,7.70
2007,12,05,09,19,7.70
2007,12,05,09,20,7.70
2007,12,05,09,21,7.70
2007,12,05,09,22,7.70
2007,12,05,09,23,7.70
2007,12,05,09,24,7.80
2007,12,05,09,25,7.80
2007,12,05,09,26,7.70
2007,12,05,09,27,7.70
2007,12,05,09,28,7.80
2007,12,05,09,29,7.80
2007,12,05,09,30,7.80
2007,12,05,09,31,7.80
2007,12,05,09,32,7.80
2007,12,05,09,33,7.80
2007,12,05,09,34,7.80
2007,12,05,09,35,7.80
2007,12,05,09,36,7.80
2007,12,05,09,37,7.80
2007,12,05,09,38,7.80
2007,12,05,09,39,7.80
2007,12,05,09,40,7.80
2007,12,05,09,41,7.80
2007,12,05,09,42,7.80
2007,12,05,09,43,7.80
2007,12,05,09,44,7.80
2007,12,05,09,45,7.80
2007,12,05,09,46,7.80
2007,12,05,09,47,7.80
2007,12,05,09,48,7.80
2007,12,05,09,49,7.80
2007,12,05,09,50,7.80
2007,12,05,09,51,7.90
2007,12,05,09,52,7.90
2007,12,05,09,53,7.90
2007,12,05,09,54,7.90
2007,12,05,09,55,7.90
2007,12,05,09,56,7.90
2007,12,05,09,57,7.90
2007,12,05,09,58,7.90
2007,12,05,09,59,7.90
2007,12,05,10,00,7.90
2007,12,05,10,01,7.90
2007,12,05,10,02,7.90
2007,12,05,10,03,7.90
2007,12,05,10,04,7.90
2007,12,05,10,05,7.90
2007,12,05,10,06,7.90
2007,12,05,10,07,7.90
2007,12,05,10,08,7.90
2007,12,05,10,09,7.90
2007,12,05,10,10,7.90
2007,12,05,10,11,7.90
2007,12,05,10,12,7.90
2007,12,05,10,13,7.90
2007,12,05,10,14,7.90
2007,12,05,10,15,7.90
2007,12,05,10,16,8.00
2007,12,05,10,17,8.00
2007,12,05,10,18,8.00
2007,12,05,10,19,8.00
2007,12,05,10,20,8.00
2007,12,05,10,21,8.00
2007,12,05,10,22,8.00
2007,12,05,10,23,8.00
2007,12,05,10,24,8.10
2007,12,05,10,25,8.10
2007,12,05,10,26,8.10
2007,12,05,10,27,8.10
2007,12,05,10,28,8.10
2007,12,05,10,29,8.10
2007,12,05,10,30,8.10
2007,12,05,10,31,8.10
2007,12,05,10,32,8.20
2007,12,05,10,33,8.10
2007,12,05,10,34,8.20
2007,12,05,10,35,8.10
2007,12,05,10,36,8.10
2007,12,05,10,37,8.20
2007,12,05,10,38,8.10
2007,12,05,10,39,8.20
2007,12,05,10,40,8.20
2007,12,05,10,41,8.20
2007,12,05,10,42,8.20
2007,12,05,10,43,8.20
2007,12,05,10,44,8.20
2007,12,05,10,45,8.20
2007,12,05,10,46,8.20
